Location: Newark
(36.1358°N, 115.1208°W)
Time: 01:50:13
(UTC+00:00)

Vanguard 1 Rocket - Pass Details

Date: 21 February 2020
Orbit: 650 x 4226 km, 34.3° (Epoch: 08 April)

Event Time Altitude Azimuth Distance (km) Brightness Sun altitude
Rises 11:16:50 0° 256° (WSW) 4,381 - -37.7°
Reaches altitude 10° 11:20:24 10° 254° (WSW) 2,968 - -37.0°
Maximum altitude 11:26:49 67° 173° (S) 836 - -35.8°
Exits shadow 11:29:30 25° 96° (E) 1,392 8.8 -35.3°
Drops below altitude 10° 11:31:16 10° 90° (E) 2,076 10.0 -34.9°
Sets 11:33:22 0° 88° (E) 2,955 11.0 -34.5°
